Regional Weather Roundup
Issued by NWS

Home | Current Version | Previous Version | Text Only | Print | Product List | Glossary On
Versions: 1 2 3 4 5 6 7 8 9 10 11 12 13 14 15 16 17 18 19 20 21 22 23 24 25 26 27 28 29 30 31 32 33 34 35 36 37 38 39 40 41 42 43 44 45 46 47 48 49 50
000
ASUS43 KTOP 031508
RWRKS

WEATHER ROUNDUP FOR KANSAS
NATIONAL WEATHER SERVICE GOODLAND KS
1000 AM CDT MON AUG 03 2015

NOTE:  "FAIR" INDICATES FEW OR NO CLOUDS BELOW 12,000 FEET WITH NO
SIGNIFICANT WEATHER AND/OR OBSTRUCTIONS TO VISIBILITY.

KSZ001>006-013>018-027>032-041>047-031600-
NORTHWEST KANSAS

CITY           SKY/WX    TMP DP  RH WIND       PRES   REMARKS
GOODLAND       MOSUNNY   79  62  56 E6        30.03S
HAYS           FAIR      79  64  61 NE6       29.97R
HILL CITY      SUNNY     79  63  57 NE3       29.98R
RUSSELL        MOSUNNY   79  68  69 VRB3      29.95R
$$

KSZ061>065-074>080-084>089-031600-
SOUTHWEST KANSAS

CITY           SKY/WX    TMP DP  RH WIND       PRES   REMARKS
DODGE CITY     SUNNY     80  65  59 S9        29.99R
ELKHART          N/A     77  64  64 S12         N/A
GARDEN CITY    MOSUNNY   76  67  73 S9        29.98R
GREAT BEND     SUNNY     79  66  65 W6        29.95S
LIBERAL        MOSUNNY   79  66  65 S9        30.00S
PRATT          MOSUNNY   81  66  61 CALM      29.97S
$$

KSZ066>073-081>083-090>101-031600-
SOUTHEAST KANSAS

CITY           SKY/WX    TMP DP  RH WIND       PRES   REMARKS
CHANUTE        SUNNY     84  67  56 SW9       29.96S
COFFEYVILLE    MOSUNNY   83  70  64 S6        29.95S
HUTCHINSON     MOSUNNY   82  68  62 S12       29.95S
MEDICINE LODGE   N/A     80  68  66 SW9       29.96R
NEWTON         MOSUNNY   81  64  57 SW14G21   29.98R
PARSONS        SUNNY     83  71  67 S5        29.97S
WICHITA INTL   PTSUNNY   81  69  67 SW13      29.95S
WICHITA JABRA  MOSUNNY   82  67  60 SW13      29.95S
WICHITA MCCONL PTSUNNY   81  67  62 S12       29.96S
WINFIELD       PTSUNNY   81  69  67 SW10      29.97S
$$

KSZ007>012-019>026-033>040-048>060-102>105-031600-
NORTHEAST KANSAS

CITY           SKY/WX    TMP DP  RH WIND       PRES   REMARKS
CONCORDIA      SUNNY     80  70  71 N6        29.94S
EMPORIA        SUNNY     85  66  53 S13       29.94S
LAWRENCE       SUNNY     80  70  71 S3        29.94F
MANHATTAN      SUNNY     83  68  60 W7        29.94R
MARYSVILLE     MOSUNNY   79  73  83 N8        29.95R
OLATHE IND     SUNNY     82  68  62 VRB5      29.96F
OLATHE EXE     SUNNY     80  68  66 VRB3      29.95F
SALINA         SUNNY     82  68  62 SW7       29.94S
TOPEKA BILLARD SUNNY     82  71  69 E5        29.95S
TOPEKA FORBES  SUNNY     83  67  58 SW5       29.95S
$$



USA.gov is the U.S. government's official web portal to all federal, state and local government web resources and services.